Location: Burla
(50.9568°N, 10.4983°E)
Time: 23:45:07
(UTC+00:00)

Timation 1 Rocket - Pass Details

Date: 18 January 2026
Orbit: 895 x 908 km, 70.0° (Epoch: 16 February)

Event Time Altitude Azimuth Distance (km) Brightness Sun altitude
Exits shadow 04:19:02 73° 260° (W) 951 4.2 -26.6°
Maximum altitude 04:19:13 74° 242° (WSW) 947 4.2 -26.6°
Drops below altitude 10° 04:25:11 10° 159° (SSE) 2,586 7.0 -25.7°
Sets 04:27:41 0° 158° (SSE) 3,524 7.7 -25.3°
